Simultaneous Nadir Overpasses (SNOs) Predictions

Prediction of SNOs between AQUA and GOES-15 Satellite Orbit:

Table of predicted SNOs for the next 14.0 days since TLE Epoch: 4/2/2022
Index Date Time (AQUA) AQUA Lat,Lon GOES-15 Lat,Lon Distance(km) Time Diff (sec)
1 04/03/2022 21:55:58 0.65,-124.75 -0.11,-128.41 415.31 80
2 04/04/2022 10:17:10 0.43,-129.90 0.11,-128.40 170.73 80
3 04/06/2022 10:04:49 -0.22,-126.90 0.11,-128.40 171.63 80
4 04/06/2022 22:26:11 -0.87,-132.08 -0.11,-128.42 415.94 80
5 04/08/2022 22:13:49 -0.25,-129.07 -0.12,-128.42 73.95 80
6 04/10/2022 22:01:27 0.40,-126.07 -0.13,-128.41 267.86 80
7 04/11/2022 10:22:39 0.72,-131.20 0.12,-128.40 318.09 80
8 04/13/2022 10:10:16 0.09,-128.19 0.13,-128.40 23.48 80
9 04/15/2022 09:57:53 -0.56,-125.18 0.13,-128.38 364.83 80
10 04/15/2022 22:19:14 -0.55,-130.35 -0.13,-128.39 223.37 80
